When you browse on this site, cookies collect data to enhance your experience and personalize the content and advertising you see.
Visit our Privacy Policy to learn more. By continuing to use the site, you agree to this use of cookies and data.
  • En España
  • Lista de países
  • Para 7 días
  • Temperatura del agua
  • Mapa Satelital
  • El tiempo en el mapa
  • Informadores
  • user-avatar
    Iniciar sesión

    Tiempo cada hora Chervonyi Kut

    Hoy, 19 Mayo, Domingo

    Tiempo Temperatura Precipitaciones Viento Presión Humedad
    00:00 +20°C° 0 mm 2 mps 750 mmHg 87%
    01:00 +19°C° 0 mm 3 mps 750 mmHg 89%
    02:00 +19°C° 0 mm 3 mps 750 mmHg 94%
    03:00 +19°C° 0.2 mm 3 mps 750 mmHg 94%
    04:00 +19°C° 0.2 mm 3 mps 751 mmHg 93%
    05:00 +18°C° 0.2 mm 4 mps 751 mmHg 93%
    06:00 +20°C° 0.7 mm 4 mps 751 mmHg 88%
    07:00 +21°C° 0.7 mm 4 mps 751 mmHg 82%
    08:00 +22°C° 0.7 mm 4 mps 751 mmHg 77%
    09:00 +23°C° 0 mm 5 mps 751 mmHg 72%
    10:00 +26°C° 0 mm 5 mps 752 mmHg 67%
    11:00 +27°C° 0 mm 5 mps 752 mmHg 62%
    12:00 +28°C° 0 mm 5 mps 752 mmHg 59%
    13:00 +28°C° 0 mm 5 mps 752 mmHg 56%
    14:00 +29°C° 0 mm 5 mps 752 mmHg 53%
    15:00 +29°C° 1.2 mm 5 mps 752 mmHg 56%
    16:00 +28°C° 1.2 mm 5 mps 752 mmHg 59%
    17:00 +28°C° 1.2 mm 4 mps 752 mmHg 61%
    18:00 +26°C° 0.7 mm 3 mps 752 mmHg 66%
    19:00 +24°C° 0.7 mm 3 mps 752 mmHg 72%
    20:00 +23°C° 0.7 mm 2 mps 753 mmHg 77%
    21:00 +21°C° 0 mm 2 mps 753 mmHg 79%
    22:00 +20°C° 0 mm 2 mps 753 mmHg 81%
    23:00 +20°C° 0 mm 1 mps 753 mmHg 83%

    Mañana, 20 Mayo, Lunes

    Tiempo Temperatura Precipitaciones Viento Presión Humedad
    00:00 +20°C° 0 mm 1 mps 753 mmHg 85%
    01:00 +19°C° 0 mm 1 mps 753 mmHg 86%
    02:00 +19°C° 0 mm 1 mps 754 mmHg 87%
    03:00 +18°C° 0 mm 2 mps 754 mmHg 88%
    04:00 +18°C° 0 mm 2 mps 754 mmHg 89%
    05:00 +17°C° 0 mm 3 mps 754 mmHg 90%
    06:00 +19°C° 0 mm 4 mps 754 mmHg 85%
    07:00 +20°C° 0 mm 5 mps 754 mmHg 80%
    08:00 +22°C° 0 mm 6 mps 754 mmHg 76%
    09:00 +23°C° 0 mm 7 mps 754 mmHg 74%
    10:00 +23°C° 0 mm 7 mps 754 mmHg 72%
    11:00 +24°C° 0 mm 7 mps 754 mmHg 71%
    12:00 +23°C° 0.1 mm 7 mps 754 mmHg 74%
    13:00 +22°C° 0.1 mm 6 mps 754 mmHg 78%
    14:00 +21°C° 0.1 mm 6 mps 754 mmHg 81%
    15:00 +22°C° 0 mm 6 mps 754 mmHg 77%
    16:00 +23°C° 0 mm 6 mps 754 mmHg 74%
    17:00 +24°C° 0 mm 6 mps 754 mmHg 70%
    18:00 +22°C° 0 mm 6 mps 754 mmHg 74%
    19:00 +21°C° 0 mm 5 mps 754 mmHg 77%
    20:00 +19°C° 0 mm 4 mps 754 mmHg 80%
    21:00 +18°C° 0 mm 4 mps 754 mmHg 83%
    22:00 +18°C° 0 mm 4 mps 754 mmHg 86%
    23:00 +17°C° 0 mm 4 mps 755 mmHg 88%

    Pasado mañana, 21 Mayo, Martes

    Tiempo Temperatura Precipitaciones Viento Presión Humedad
    00:00 +17°C° 0 mm 4 mps 754 mmHg 90%
    01:00 +16°C° 0 mm 5 mps 754 mmHg 92%
    02:00 +16°C° 0 mm 5 mps 754 mmHg 94%
    03:00 +16°C° 0 mm 5 mps 754 mmHg 94%
    04:00 +16°C° 0 mm 5 mps 754 mmHg 93%
    05:00 +16°C° 0 mm 5 mps 754 mmHg 92%
    06:00 +17°C° 0 mm 6 mps 754 mmHg 87%
    07:00 +18°C° 0 mm 7 mps 754 mmHg 81%
    08:00 +21°C° 0 mm 7 mps 754 mmHg 75%
    09:00 +22°C° 0 mm 8 mps 753 mmHg 72%
    10:00 +22°C° 0 mm 8 mps 753 mmHg 68%
    11:00 +23°C° 0 mm 9 mps 753 mmHg 65%
    12:00 +23°C° 0 mm 9 mps 753 mmHg 66%
    13:00 +23°C° 0 mm 8 mps 753 mmHg 67%
    14:00 +23°C° 0 mm 8 mps 753 mmHg 67%
    15:00 +23°C° 0 mm 7 mps 752 mmHg 69%
    16:00 +22°C° 0 mm 7 mps 752 mmHg 70%
    17:00 +22°C° 0 mm 7 mps 752 mmHg 72%
    18:00 +21°C° 0.3 mm 6 mps 752 mmHg 75%
    19:00 +19°C° 0.3 mm 5 mps 752 mmHg 79%
    20:00 +18°C° 0.3 mm 4 mps 753 mmHg 83%
    21:00 +18°C° 0 mm 4 mps 753 mmHg 84%
    22:00 +18°C° 0 mm 4 mps 753 mmHg 84%
    23:00 +17°C° 0 mm 4 mps 753 mmHg 85%

    22 Mayo, Miércoles

    Tiempo Temperatura Precipitaciones Viento Presión Humedad
    00:00 +17°C° 0 mm 3 mps 753 mmHg 87%
    01:00 +17°C° 0 mm 3 mps 753 mmHg 89%
    02:00 +16°C° 0 mm 3 mps 752 mmHg 90%
    03:00 +16°C° 0.2 mm 3 mps 752 mmHg 91%
    04:00 +16°C° 0.2 mm 3 mps 752 mmHg 93%
    05:00 +16°C° 0.2 mm 3 mps 752 mmHg 94%
    06:00 +17°C° 0 mm 4 mps 752 mmHg 90%
    07:00 +18°C° 0 mm 4 mps 752 mmHg 86%
    08:00 +20°C° 0 mm 5 mps 752 mmHg 82%
    09:00 +21°C° 0.8 mm 4 mps 752 mmHg 77%
    10:00 +21°C° 0.8 mm 4 mps 752 mmHg 71%
    11:00 +22°C° 0.8 mm 3 mps 751 mmHg 66%
    12:00 +25°C° 0.3 mm 4 mps 751 mmHg 59%
    13:00 +26°C° 0.3 mm 4 mps 751 mmHg 51%
    14:00 +27°C° 0.3 mm 4 mps 751 mmHg 44%
    15:00 +26°C° 0 mm 4 mps 751 mmHg 48%
    16:00 +26°C° 0 mm 4 mps 751 mmHg 52%
    17:00 +25°C° 0 mm 5 mps 750 mmHg 56%
    18:00 +22°C° 0.3 mm 4 mps 751 mmHg 64%
    19:00 +21°C° 0.3 mm 4 mps 751 mmHg 72%
    20:00 +19°C° 0.3 mm 3 mps 751 mmHg 80%
    21:00 +18°C° 0 mm 3 mps 751 mmHg 80%
    22:00 +18°C° 0 mm 2 mps 751 mmHg 80%
    23:00 +17°C° 0 mm 2 mps 751 mmHg 80%

    23 Mayo, Jueves

    Tiempo Temperatura Precipitaciones Viento Presión Humedad
    00:00 +17°C° 0.1 mm 2 mps 751 mmHg 81%
    01:00 +16°C° 0.1 mm 2 mps 751 mmHg 82%
    02:00 +16°C° 0.1 mm 1 mps 751 mmHg 83%
    03:00 +16°C° 0 mm 1 mps 751 mmHg 83%
    04:00 +16°C° 0 mm 1 mps 751 mmHg 83%
    05:00 +16°C° 0 mm 1 mps 751 mmHg 82%
    06:00 +19°C° 0 mm 1 mps 751 mmHg 77%
    07:00 +19°C° 0 mm 2 mps 751 mmHg 71%
    08:00 +21°C° 0 mm 2 mps 751 mmHg 65%
    09:00 +23°C° 0.7 mm 2 mps 751 mmHg 61%
    10:00 +24°C° 0.7 mm 3 mps 751 mmHg 58%
    11:00 +25°C° 0.7 mm 3 mps 751 mmHg 54%
    12:00 +25°C° 0.1 mm 4 mps 751 mmHg 53%
    13:00 +25°C° 0.1 mm 4 mps 751 mmHg 53%
    14:00 +26°C° 0.1 mm 5 mps 750 mmHg 52%
    15:00 +25°C° 0.3 mm 5 mps 750 mmHg 56%
    16:00 +25°C° 0.3 mm 5 mps 750 mmHg 59%
    17:00 +23°C° 0.3 mm 5 mps 750 mmHg 62%
    18:00 +22°C° 0 mm 4 mps 750 mmHg 68%
    19:00 +20°C° 0 mm 4 mps 751 mmHg 74%
    20:00 +19°C° 0 mm 3 mps 751 mmHg 80%
    21:00 +18°C° 0 mm 3 mps 751 mmHg 83%
    22:00 +17°C° 0 mm 3 mps 751 mmHg 86%
    23:00 +17°C° 0 mm 3 mps 751 mmHg 89%

    24 Mayo, Viernes

    Tiempo Temperatura Precipitaciones Viento Presión Humedad
    00:00 +16°C° 0 mm 3 mps 751 mmHg 90%
    01:00 +16°C° 0 mm 3 mps 751 mmHg 92%
    02:00 +14°C° 0 mm 3 mps 751 mmHg 93%
    03:00 +14°C° 0 mm 3 mps 751 mmHg 93%
    04:00 +14°C° 0 mm 2 mps 751 mmHg 93%
    05:00 +14°C° 0 mm 2 mps 751 mmHg 93%
    06:00 +14°C° 0 mm 3 mps 751 mmHg 86%
    07:00 +17°C° 0 mm 3 mps 752 mmHg 80%
    08:00 +18°C° 0 mm 4 mps 752 mmHg 73%
    09:00 +19°C° 0 mm 4 mps 752 mmHg 71%
    10:00 +19°C° 0 mm 4 mps 752 mmHg 70%
    11:00 +20°C° 0 mm 4 mps 752 mmHg 68%
    12:00 +20°C° 0 mm 4 mps 751 mmHg 67%
    13:00 +20°C° 0 mm 4 mps 751 mmHg 66%
    14:00 +20°C° 0 mm 3 mps 751 mmHg 65%
    15:00 +20°C° 0 mm 3 mps 751 mmHg 66%
    16:00 +20°C° 0 mm 3 mps 751 mmHg 66%
    17:00 +20°C° 0 mm 3 mps 751 mmHg 67%
    18:00 +19°C° 0 mm 2 mps 750 mmHg 72%
    19:00 +17°C° 0 mm 2 mps 750 mmHg 77%
    20:00 +16°C° 0 mm 2 mps 750 mmHg 83%
    21:00 +15°C° 0 mm 1 mps 750 mmHg 83%
    22:00 +15°C° 0 mm 1 mps 750 mmHg 84%
    23:00 +15°C° 0 mm 1 mps 750 mmHg 85%
    Mostrar más